AirNav   Jet Aviation Boston
 
 332 users online  

C24 Mineral County Memorial Airport
Creede, Colorado, USA

GOING TO CREEDE?


FAA INFORMATION EFFECTIVE 19 JULY 2018

Location

FAA Identifier: C24
Lat/Long: 37-49-19.8000N / 106-55-47.6000W
37-49.330000N / 106-55.793333W
37.8221667 / -106.9298889
(estimated)
Elevation: 8680 ft. / 2646 m (estimated)
Variation: 12E (1985)
From city: 2 miles E of CREEDE, CO
Time zone: UTC -6 (UTC -7 during Standard Time)
Zip code: 81130

Airport Operations

Airport use: Open to the public
Activation date: 09/1942
Control tower: no
ARTCC: DENVER CENTER
FSS: DENVER FLIGHT SERVICE STATION
NOTAMs facility: DEN (NOTAM-D service available)
Attendance: UNATNDD
Wind indicator: yes
Segmented circle: no

Airport Communications

CTAF: 122.9

Nearby radio navigation aids

VOR radial/distance  VOR name  Freq  Var
HBUr158/38.2BLUE MESA VOR/DME114.9014E

Airport Services

Fuel available: 100LL JET-A
Parking: tiedowns
Airframe service: NONE
Powerplant service: NONE
Bottled oxygen: NONE
Bulk oxygen: NONE

Runway Information

Runway 7/25

Dimensions: 6880 x 60 ft. / 2097 x 18 m
Surface: asphalt, in fair condition
Weight bearing capacity: 
Single wheel: 12.5
RUNWAY 7  RUNWAY 25
Latitude: 37-49.261500N37-49.397833N
Longitude: 106-56.502667W106-55.083500W
Elevation: 8630.0 ft.
Gradient: 0.7%0.7%
Traffic pattern: leftleft
Displaced threshold: 188 ft.no
Markings: basic, in fair conditionbasic, in fair condition

Airport Ownership and Management from official FAA records

Ownership: Publicly-owned
Owner: MINERAL COUNTY
BOX 70
CREEDE, CO 81130
Phone 719-658-2331
Manager: LES CAHILL-CO ADMINISTRATOR
BOX 70
CREEDE, CO 81130
Phone 719-658-2360
719-658-2600 CO SHERIFF 24 HRS.

Airport Operational Statistics

Aircraft based on the field: 3
Single engine airplanes: 3
    
Aircraft operations: avg 38/week *
75% transient general aviation
25% local general aviation
* for 12-month period ending 31 December 2017

Additional Remarks

A58-25 LARGE ROCKS 20' TO 200' FROM RUNWAY END.
MOUNTAINS IN ALL DIRECTIONS.
DEPARTURE TO NE AVOID OVERFLIGHT OF TRAILERS & RESIDENTIAL HOMES; CLIMB TO +200' AGL ON CNTRLN EXTDD PRIOR TO TURN.
GLIDER & HANG GLIDER ACTIVITY ON & INVOF ARPT.
ELK & DEER ON AND INVOF ARPT.

Instrument Procedures

There are no published instrument procedures at C24.

Some nearby airports with instrument procedures:

KRCV - Astronaut Kent Rominger Airport (28 nm E)
KPSO - Stevens Field Airport (33 nm S)
KGUC - Gunnison-Crested Butte Regional Airport (43 nm N)
KMVI - Monte Vista Municipal Airport (46 nm E)
KTEX - Telluride Regional Airport (47 nm W)
 
Loc | Ops | Rwys | IFR | FBO | Links
Com | Nav | Svcs | Stats | Notes


 
Area around C24 (Mineral County Memorial Airport)
 
Road maps at: MapQuest Bing Google
 
Aerial photo
WARNING: Photo may not be current or correct
Aerial photo of C24 (Mineral County Memorial Airport)
Do you have a better or more recent aerial photo of Mineral County Memorial Airport that you would like to share? If so, please send us your photo.

 
Sectional chart

 
Airport distance calculator
Flying to Mineral County Memorial Airport? Find the distance to fly.

From to C24

Sunrise and sunset
Times for 22-Jul-2018
 Local
(UTC-6)
 Zulu
(UTC)
Morning civil twilight05:3411:34
Sunrise06:0412:04
Sunset20:2402:24
Evening civil twilight20:5402:54

Current date and time
Zulu (UTC)  22-Jul-2018 09:58:26
Local (UTC-6)  22-Jul-2018 03:58:26
 
METAR
KCPW 
23nm S 
220948Z AUTO 00000KT 10SM OVC090 12/03 A3078 RMK AO2
KRCV 
28nm E 
220935Z AUTO 24008KT 10SM BKN110 17/09 A3042 RMK AO2 T01660085
KPSO 
33nm S 
220955Z AUTO 00000KT 10SM CLR 17/08 A3039 RMK AO2 T01730082
K04V 
40nm NE 
220954Z AUTO 34007KT 10SM CLR 17/05 A3041 RMK AO2 PWINO
KGUC 
42nm N 
220856Z AUTO 00000KT 10SM CLR 14/11 A3042 RMK AO2 SLP201 60000 T01440106 50004
TAF
KGUC 
42nm N 
220520Z 2206/2306 VRB03KT P6SM FEW100 BKN120 FM222000 31007KT P6SM FEW090 SCT200 FM222100 34008KT P6SM VCTS SCT100CB BKN130 FM230400 VRB04KT P6SM SCT080 BKN140
KTEX 
47nm W 
220520Z 2206/2306 12003KT P6SM VCSH SCT100 BKN120 FM221800 27008KT P6SM VCTS SCT070CB BKN140 FM230100 20005KT P6SM FEW060 SCT200
NOTAMs
Click for the latest NOTAMs
NOTAMs are issued by the DoD/FAA and will open in a separate window not controlled by AirNav.

 

 
 

FBO, Fuel Providers, and Aircraft Ground Support

  
 Business Name 
 
 Contact 
 
 Services / Description 
 
Fuel Prices
 
Comments
  
Mineral County Memorial Airport 719-658-2360
no information available

If you are affiliated with Mineral County Memorial Airport and would like to show here your services, contact info, web link, logo, and more, click here
100LL Jet A
SS $5.15 $4.75 
 Updated 11-Jul-2018
 
   write
SS=Self service
Update Fuel Prices
 

Would you like to see your business listed on this page?

 If your business provides an interesting product or service to pilots, flight crews, aircraft, or users of the Mineral County Memorial Airport, you should consider listing it here.  To start the listing process, click on the button below
 
Add a business
 

Other Pages about Mineral County Memorial Airport

www.flycolorado.org/...
 
Update a link
 
Copyright © AirNav, LLC. All rights reserved. Privacy Policy  Contact